Hourly Weather Rudnia

Today, 15 April, Thursday

Time Temperature Precipitation Wind Pressure Humidity
00:00 +1°C° 0.2 mm 5 mps 756 mmHg 93%
01:00 +1°C° 0 mm 6 mps 756 mmHg 95%
02:00 -1°C° 0.5 mm 6 mps 756 mmHg 95%
03:00 -1°C° 0.5 mm 6 mps 756 mmHg 96%
04:00 -1°C° 0.5 mm 6 mps 755 mmHg 97%
05:00 -1°C° 0.9 mm 6 mps 755 mmHg 97%
06:00 -1°C° 0.9 mm 6 mps 755 mmHg 97%
07:00 -1°C° 0.9 mm 6 mps 755 mmHg 97%
08:00 -1°C° 0.6 mm 6 mps 755 mmHg 97%
09:00 -1°C° 0.6 mm 6 mps 755 mmHg 97%
10:00 -1°C° 0.6 mm 6 mps 755 mmHg 97%
11:00 +1°C° 0.8 mm 6 mps 755 mmHg 96%
12:00 +1°C° 0.8 mm 6 mps 755 mmHg 95%
13:00 +2°C° 0.8 mm 5 mps 755 mmHg 94%
14:00 +2°C° 0.3 mm 5 mps 755 mmHg 91%
15:00 +3°C° 0.3 mm 5 mps 755 mmHg 89%
16:00 +4°C° 0.3 mm 4 mps 755 mmHg 87%
17:00 +4°C° 0 mm 4 mps 755 mmHg 87%
18:00 +4°C° 0 mm 4 mps 755 mmHg 88%
19:00 +4°C° 0 mm 4 mps 755 mmHg 88%
20:00 +4°C° 0 mm 4 mps 755 mmHg 89%
21:00 +4°C° 0 mm 4 mps 755 mmHg 89%
22:00 +3°C° 0 mm 3 mps 755 mmHg 90%
23:00 +3°C° 0.1 mm 3 mps 755 mmHg 90%

Tomorrow, 16 April, Friday

Time Temperature Precipitation Wind Pressure Humidity
00:00 +3°C° 0.1 mm 3 mps 755 mmHg 89%
01:00 +1°C° 0.1 mm 4 mps 755 mmHg 89%
02:00 +1°C° 0 mm 4 mps 754 mmHg 89%
03:00 +1°C° 0 mm 4 mps 754 mmHg 89%
04:00 +1°C° 0 mm 4 mps 754 mmHg 89%
05:00 +1°C° 0.1 mm 4 mps 754 mmHg 90%
06:00 +1°C° 0.1 mm 4 mps 754 mmHg 92%
07:00 +1°C° 0.1 mm 4 mps 754 mmHg 93%
08:00 +1°C° 0.1 mm 4 mps 754 mmHg 93%
09:00 +1°C° 0.1 mm 4 mps 754 mmHg 93%
10:00 +3°C° 0.1 mm 4 mps 754 mmHg 93%
11:00 +3°C° 0.1 mm 4 mps 754 mmHg 93%
12:00 +3°C° 0.1 mm 4 mps 754 mmHg 93%
13:00 +3°C° 0.1 mm 4 mps 754 mmHg 93%
14:00 +3°C° 0.3 mm 4 mps 754 mmHg 94%
15:00 +3°C° 0.3 mm 3 mps 754 mmHg 96%
16:00 +3°C° 0.3 mm 3 mps 754 mmHg 97%
17:00 +3°C° 0 mm 3 mps 754 mmHg 97%
18:00 +3°C° 0 mm 3 mps 755 mmHg 98%
19:00 +3°C° 0 mm 3 mps 755 mmHg 98%
20:00 +4°C° 0 mm 2 mps 755 mmHg 98%
21:00 +5°C° 0 mm 2 mps 755 mmHg 98%
22:00 +5°C° 0 mm 2 mps 755 mmHg 98%
23:00 +5°C° 0 mm 2 mps 755 mmHg 98%

Day after tomorrow, 17 April, Saturday

Time Temperature Precipitation Wind Pressure Humidity
00:00 +4°C° 0 mm 3 mps 755 mmHg 98%
01:00 +4°C° 0 mm 3 mps 755 mmHg 98%
02:00 +4°C° 0 mm 3 mps 755 mmHg 98%
03:00 +4°C° 0 mm 3 mps 755 mmHg 98%
04:00 +5°C° 0 mm 2 mps 755 mmHg 98%
05:00 +6°C° 0.7 mm 2 mps 755 mmHg 98%
06:00 +6°C° 0.7 mm 2 mps 755 mmHg 98%
07:00 +6°C° 0.7 mm 2 mps 755 mmHg 98%
08:00 +7°C° 0.3 mm 2 mps 755 mmHg 97%
09:00 +7°C° 0.3 mm 3 mps 755 mmHg 95%
10:00 +8°C° 0.3 mm 3 mps 755 mmHg 94%
11:00 +9°C° 0.1 mm 3 mps 755 mmHg 89%
12:00 +10°C° 0.1 mm 3 mps 755 mmHg 85%
13:00 +10°C° 0.1 mm 4 mps 756 mmHg 81%
14:00 +11°C° 0 mm 4 mps 755 mmHg 79%
15:00 +11°C° 0 mm 4 mps 755 mmHg 78%
16:00 +11°C° 0 mm 4 mps 755 mmHg 76%
17:00 +10°C° 0.1 mm 4 mps 756 mmHg 81%
18:00 +9°C° 0.1 mm 3 mps 756 mmHg 85%
19:00 +8°C° 0.1 mm 3 mps 756 mmHg 90%
20:00 +8°C° 0 mm 3 mps 756 mmHg 91%
21:00 +7°C° 0 mm 3 mps 756 mmHg 92%
22:00 +6°C° 0 mm 2 mps 757 mmHg 93%
23:00 +6°C° 0 mm 2 mps 757 mmHg 93%

18 April, Sunday

Time Temperature Precipitation Wind Pressure Humidity
00:00 +6°C° 0 mm 2 mps 756 mmHg 93%
01:00 +6°C° 0 mm 2 mps 756 mmHg 92%
02:00 +6°C° 0 mm 2 mps 756 mmHg 93%
03:00 +6°C° 0 mm 2 mps 756 mmHg 93%
04:00 +6°C° 0 mm 2 mps 756 mmHg 94%
05:00 +7°C° 0.4 mm 2 mps 756 mmHg 94%
06:00 +7°C° 0.4 mm 2 mps 756 mmHg 95%
07:00 +7°C° 0.4 mm 2 mps 756 mmHg 96%
08:00 +8°C° 0.4 mm 2 mps 756 mmHg 95%
09:00 +8°C° 0.4 mm 2 mps 756 mmHg 93%
10:00 +8°C° 0.4 mm 2 mps 756 mmHg 92%
11:00 +9°C° 0.4 mm 2 mps 756 mmHg 92%
12:00 +9°C° 0.4 mm 2 mps 756 mmHg 91%
13:00 +9°C° 0.4 mm 2 mps 756 mmHg 91%
14:00 +10°C° 0.1 mm 2 mps 756 mmHg 88%
15:00 +10°C° 0.1 mm 2 mps 756 mmHg 85%
16:00 +12°C° 0.1 mm 2 mps 756 mmHg 81%
17:00 +10°C° 0.3 mm 2 mps 756 mmHg 86%
18:00 +10°C° 0.3 mm 2 mps 756 mmHg 91%
19:00 +9°C° 0.3 mm 2 mps 756 mmHg 96%
20:00 +9°C° 0.1 mm 2 mps 756 mmHg 96%
21:00 +8°C° 0.1 mm 2 mps 756 mmHg 95%
22:00 +8°C° 0.1 mm 2 mps 756 mmHg 94%
23:00 +8°C° 0 mm 2 mps 756 mmHg 94%

19 April, Monday

Time Temperature Precipitation Wind Pressure Humidity
00:00 +8°C° 0 mm 2 mps 756 mmHg 94%
01:00 +8°C° 0 mm 2 mps 756 mmHg 94%
02:00 +8°C° 0 mm 2 mps 756 mmHg 95%
03:00 +8°C° 0 mm 2 mps 756 mmHg 95%
04:00 +8°C° 0 mm 2 mps 756 mmHg 95%
05:00 +8°C° 0 mm 3 mps 756 mmHg 93%
06:00 +9°C° 0 mm 3 mps 756 mmHg 92%
07:00 +9°C° 0 mm 3 mps 756 mmHg 90%
08:00 +10°C° 0.2 mm 4 mps 756 mmHg 83%
09:00 +12°C° 0.2 mm 4 mps 756 mmHg 76%
10:00 +13°C° 0.2 mm 4 mps 756 mmHg 68%
11:00 +13°C° 0.1 mm 5 mps 756 mmHg 65%
12:00 +14°C° 0.1 mm 5 mps 756 mmHg 62%
13:00 +14°C° 0.1 mm 5 mps 756 mmHg 59%
14:00 +14°C° 0.1 mm 5 mps 756 mmHg 60%
15:00 +13°C° 0.1 mm 4 mps 756 mmHg 61%
16:00 +13°C° 0.1 mm 4 mps 756 mmHg 62%
17:00 +12°C° 0 mm 4 mps 756 mmHg 66%
18:00 +11°C° 0 mm 3 mps 756 mmHg 70%
19:00 +9°C° 0 mm 3 mps 756 mmHg 74%
20:00 +9°C° 0 mm 3 mps 756 mmHg 76%
21:00 +9°C° 0 mm 2 mps 756 mmHg 78%
22:00 +8°C° 0 mm 2 mps 756 mmHg 79%
23:00 +8°C° 0.1 mm 2 mps 755 mmHg 80%

20 April, Tuesday

Time Temperature Precipitation Wind Pressure Humidity
00:00 +8°C° 0.1 mm 2 mps 755 mmHg 80%
01:00 +8°C° 0.1 mm 2 mps 755 mmHg 81%
02:00 +8°C° 0 mm 2 mps 755 mmHg 84%
03:00 +7°C° 0 mm 2 mps 755 mmHg 87%
04:00 +6°C° 0 mm 2 mps 755 mmHg 90%
05:00 +7°C° 0 mm 3 mps 755 mmHg 85%
06:00 +8°C° 0 mm 3 mps 755 mmHg 80%
07:00 +9°C° 0 mm 3 mps 755 mmHg 75%
08:00 +10°C° 0 mm 3 mps 755 mmHg 68%
09:00 +11°C° 0 mm 3 mps 755 mmHg 62%
10:00 +12°C° 0 mm 4 mps 755 mmHg 56%
11:00 +12°C° 0 mm 3 mps 755 mmHg 56%
12:00 +12°C° 0 mm 3 mps 755 mmHg 56%
13:00 +12°C° 0 mm 3 mps 754 mmHg 56%
14:00 +14°C° 0 mm 2 mps 754 mmHg 57%
15:00 +14°C° 0 mm 2 mps 754 mmHg 57%
16:00 +14°C° 0 mm 2 mps 753 mmHg 58%
17:00 +13°C° 0 mm 2 mps 753 mmHg 64%
18:00 +12°C° 0 mm 2 mps 753 mmHg 69%
19:00 +10°C° 0 mm 2 mps 754 mmHg 74%
20:00 +9°C° 0 mm 2 mps 753 mmHg 75%
21:00 +10°C° 0 mm 1 mps 753 mmHg 76%
22:00 +10°C° 0 mm 1 mps 753 mmHg 76%
23:00 +9°C° 0 mm 1 mps 753 mmHg 77%
Show more